Flag for Canada Weather past 2 weeks in Resolute Bay, Nunavut, Canada

Now
34 °F

Low clouds.


Feels Like: 27 °F
Forecast: 28 / 40 °F
Wind: 8 mph from Southeast

Location: Resolute

Current Time: Aug 28, 2015 at 5:32:29 AM

Latest Report: Aug 28, 2015 at 4:00 AM


Visibility: 15 mi

Pressure: 29.86 "Hg

Humidity: 93%

Dew point: 32 °F

Location of Resolute BayLocation

Historic Weather in Resolute Bay — Graph

°F

Resolute Bay temperature yesterday

Maximum temperature yesterday: 39 °F (at 3:00 PM)
Minimum temperature yesterday: 34 °F (at 9:00 AM)
Average temperature yesterday: 36 °F

Past Weeks' High & Low Weather Summary

 TemperatureHumidityPressure
High50 °F (Aug 16, 2:00 PM)100% (Aug 17, 4:00 AM)30.41 "Hg (Aug 17, 4:00 AM)
Low28 °F (Aug 23, 3:00 AM)54% (Aug 16, 12:00 PM)29.69 "Hg (Aug 17, 5:00 AM)
Average36 °F88%30.04 "Hg
* Reported Aug 13 4:00 AM — Aug 28 4:00 AM, Resolute Bay, Weather by CustomWeather, © 2015

Note: Actual official high and low records may vary slightly from our data, if they occured in-between our weather recording intervals... More about our weather records

Advertising

Resolute Bay weather history for previous 24 hours

 ConditionsComfort  
Time TempWeatherWind HumidityBarometerVisibility
4:00 AM
Fri, Aug 28
34 °FLow clouds.8 mph93%29.86 "Hg15 mi
3:00 AM34 °FPassing clouds.9 mph93%29.86 "Hg15 mi
2:00 AM34 °FPassing clouds.13 mph93%29.87 "Hg15 mi
1:49 AM34 °FPassing clouds.14 mph93%29.86 "Hg15 mi
1:00 AM34 °FPassing clouds.14 mph93%29.87 "Hg15 mi
12:00 AM34 °FPassing clouds.13 mph87%29.87 "Hg15 mi
11:00 PM
Thu, Aug 27
34 °FPassing clouds.12 mph87%29.87 "Hg15 mi
10:00 PM36 °FPassing clouds.14 mph87%29.88 "Hg15 mi
9:00 PM36 °FPassing clouds.16 mph87%29.88 "Hg15 mi
8:00 PM37 °FScattered clouds.17 mph81%29.89 "Hg15 mi
7:00 PM37 °FScattered clouds.23 mph75%29.89 "Hg15 mi
6:00 PM39 °FBroken clouds.20 mph75%29.90 "Hg15 mi
5:00 PM39 °FPartly sunny.22 mph75%29.91 "Hg15 mi
4:00 PM39 °FPartly sunny.24 mph75%29.91 "Hg15 mi
3:00 PM39 °FPartly sunny.22 mph75%29.92 "Hg15 mi
2:00 PM37 °FBroken clouds.28 mph81%29.93 "Hg15 mi
1:00 PM36 °FLow clouds.23 mph87%29.93 "Hg10 mi
12:00 PM36 °FLow clouds.22 mph87%29.94 "Hg10 mi
11:00 AM36 °FLow clouds.24 mph87%29.95 "Hg15 mi
10:00 AM34 °FMostly cloudy.21 mph93%29.96 "Hg15 mi
9:00 AM34 °FBroken clouds.22 mph93%29.97 "Hg15 mi
8:00 AM36 °FPartly sunny.22 mph87%29.98 "Hg15 mi
7:00 AM36 °FBroken clouds.21 mph87%29.98 "Hg15 mi
6:00 AM36 °FPartly sunny.23 mph87%29.98 "Hg15 mi
5:00 AM36 °FPartly cloudy.21 mph87%30.00 "Hg15 mi
Weather by CustomWeather, © 2015

See weather overviewHow to use our weather pages